DAL4522 MTPP-MKJP

Flight info

Callsign DAL4522
Flight time N/A
Altitude 32000
Route MAROT1F MAROT DCT AVALU L577 KEBET DCT BADOW
Aircraft B738/M-SDE2E3FGHIRWXY/LB1

Departure

Time N/A
Airport Toussaint Louverture International Airport (MTPP)

Arrival

Time 2026-04-27 14:20
Airport Norman Manley International Airport (MKJP)
Time Latitude Longitude Altitude Speed Heading
2026-04-27 14:20 17.93574 -76.78052 24 ft 0 kts 102°
2026-04-27 14:25 17.93576 -76.78066 29 ft 4 kts 101°
2026-04-27 14:25 17.93581 -76.78094 28 ft 4 kts 102°
2026-04-27 14:26 17.93589 -76.78121 28 ft 4 kts 122°
2026-04-27 14:26 17.93600 -76.78132 27 ft 2 kts 200°
2026-04-27 14:26 17.93602 -76.78131 27 ft 1 kts 201°
2026-04-27 14:27 17.93601 -76.78132 27 ft 1 kts 201°
2026-04-27 14:28 17.93553 -76.78152 25 ft 13 kts 202°
2026-04-27 14:28 17.93540 -76.78259 23 ft 21 kts 291°
2026-04-27 14:28 17.93606 -76.78430 22 ft 28 kts 292°
2026-04-27 14:28 17.93675 -76.78610 22 ft 24 kts 292°
2026-04-27 14:29 17.93737 -76.78768 23 ft 23 kts 292°
2026-04-27 14:29 17.93795 -76.78920 21 ft 22 kts 292°
2026-04-27 14:29 17.93853 -76.79069 20 ft 23 kts 292°
2026-04-27 14:29 17.93916 -76.79233 19 ft 26 kts 292°
2026-04-27 14:30 17.93986 -76.79414 19 ft 27 kts 292°
2026-04-27 14:30 17.94053 -76.79589 18 ft 25 kts 292°
2026-04-27 14:30 17.94099 -76.79759 16 ft 23 kts 281°
2026-04-27 14:30 17.94080 -76.79910 16 ft 19 kts 212°
2026-04-27 14:31 17.94008 -76.79886 15 ft 9 kts 114°
2026-04-27 14:31 17.93903 -76.79619 18 ft 81 kts 112°
2026-04-27 14:31 17.93590 -76.78816 24 ft 155 kts 112°
2026-04-27 14:31 17.93121 -76.77629 401 ft 191 kts 115°
2026-04-27 14:32 17.92250 -76.76567 1303 ft 202 kts 153°
2026-04-27 14:32 17.90861 -76.76301 2093 ft 206 kts 183°
2026-04-27 14:32 17.89430 -76.76521 2729 ft 216 kts 182°
2026-04-27 14:32 17.87860 -76.76434 2957 ft 235 kts 168°
2026-04-27 14:33 17.86244 -76.76036 3468 ft 242 kts 163°
2026-04-27 14:33 17.84573 -76.75550 3941 ft 254 kts 163°
2026-04-27 14:33 17.82852 -76.75041 4728 ft 257 kts 163°
2026-04-27 14:33 17.81131 -76.74536 5629 ft 257 kts 163°
2026-04-27 14:34 17.79397 -76.74033 6464 ft 261 kts 163°
2026-04-27 14:34 17.77636 -76.73527 7206 ft 264 kts 163°
2026-04-27 14:34 17.75846 -76.73016 7957 ft 268 kts 163°
2026-04-27 14:34 17.74030 -76.72500 8701 ft 273 kts 163°
2026-04-27 14:35 17.72186 -76.71978 9480 ft 276 kts 163°
2026-04-27 14:35 17.70318 -76.71451 10209 ft 280 kts 163°
2026-04-27 14:35 17.68425 -76.70918 10915 ft 283 kts 164°
2026-04-27 14:35 17.66498 -76.70376 11430 ft 295 kts 165°
2026-04-27 14:36 17.64430 -76.69795 11591 ft 319 kts 165°
2026-04-27 14:36 17.62212 -76.69173 11764 ft 341 kts 165°
2026-04-27 14:36 17.59858 -76.68513 12020 ft 357 kts 165°
2026-04-27 14:36 17.57437 -76.67834 12547 ft 363 kts 166°
2026-04-27 14:37 17.54984 -76.67147 13199 ft 366 kts 166°
2026-04-27 14:37 17.52514 -76.66454 13829 ft 369 kts 166°
2026-04-27 14:37 17.50013 -76.65754 14340 ft 374 kts 166°
2026-04-27 14:37 17.47483 -76.65045 14839 ft 379 kts 166°
2026-04-27 14:38 17.44927 -76.64330 15349 ft 383 kts 166°
2026-04-27 14:38 17.42340 -76.63605 15852 ft 387 kts 167°
2026-04-27 14:38 17.39762 -76.62884 16339 ft 390 kts 167°
2026-04-27 14:38 17.37126 -76.62146 16828 ft 394 kts 167°
2026-04-27 14:39 17.34464 -76.61401 17311 ft 398 kts 167°
2026-04-27 14:39 17.31773 -76.60649 17795 ft 402 kts 167°
2026-04-27 14:39 17.29053 -76.59928 18246 ft 405 kts 172°
2026-04-27 14:39 17.26245 -76.59749 18631 ft 406 kts 182°
2026-04-27 14:40 17.23413 -76.59759 19034 ft 408 kts 182°
2026-04-27 14:40 17.20567 -76.59785 19443 ft 411 kts 182°
2026-04-27 14:40 17.17694 -76.59807 19849 ft 414 kts 182°
2026-04-27 14:40 17.14809 -76.59816 20260 ft 416 kts 182°
2026-04-27 14:41 17.12885 -76.59817 20527 ft 418 kts 182°
2026-04-27 14:41 17.09972 -76.59811 20928 ft 420 kts 182°
2026-04-27 14:41 17.07033 -76.59800 21315 ft 423 kts 182°
2026-04-27 14:41 17.04076 -76.59787 21694 ft 426 kts 182°
2026-04-27 14:42 17.01107 -76.59772 22083 ft 428 kts 182°
2026-04-27 14:42 16.98120 -76.59757 22458 ft 431 kts 182°
2026-04-27 14:42 16.95114 -76.59743 22822 ft 433 kts 182°
2026-04-27 14:42 16.92086 -76.59728 23179 ft 436 kts 182°
2026-04-27 14:43 16.89048 -76.59714 23519 ft 439 kts 182°
2026-04-27 14:43 16.85984 -76.59699 23832 ft 441 kts 182°
2026-04-27 14:43 16.82913 -76.59685 24157 ft 442 kts 182°
2026-04-27 14:43 16.79839 -76.59670 24503 ft 442 kts 182°
2026-04-27 14:44 16.76765 -76.59656 24854 ft 442 kts 182°
2026-04-27 14:44 16.73683 -76.59641 25189 ft 443 kts 182°
2026-04-27 14:44 16.70602 -76.59627 25521 ft 443 kts 182°
2026-04-27 14:44 16.67514 -76.59612 25820 ft 445 kts 182°
2026-04-27 14:45 16.64413 -76.59389 26100 ft 449 kts 174°
2026-04-27 14:45 16.61350 -76.58663 26404 ft 453 kts 167°
2026-04-27 14:45 16.58320 -76.57737 26697 ft 455 kts 166°
2026-04-27 14:45 16.55289 -76.56781 26982 ft 456 kts 166°
2026-04-27 14:46 16.52249 -76.55819 27260 ft 457 kts 167°
2026-04-27 14:46 16.49204 -76.54866 27528 ft 458 kts 167°
2026-04-27 14:46 16.46141 -76.53918 27789 ft 459 kts 167°
2026-04-27 14:46 16.43070 -76.52976 28054 ft 460 kts 167°
2026-04-27 14:47 16.39992 -76.52039 28312 ft 461 kts 167°
2026-04-27 14:47 16.36908 -76.51104 28570 ft 462 kts 168°
2026-04-27 14:47 16.33814 -76.50167 28826 ft 463 kts 168°
2026-04-27 14:47 16.30712 -76.49229 29079 ft 464 kts 168°
2026-04-27 14:48 16.27610 -76.48290 29317 ft 465 kts 168°
2026-04-27 14:48 16.21401 -76.46411 29987 ft 463 kts 168°
2026-04-27 14:48 16.18318 -76.45477 30353 ft 460 kts 168°
2026-04-27 14:49 16.15249 -76.44547 30673 ft 458 kts 168°
2026-04-27 14:49 16.12190 -76.43622 30965 ft 457 kts 168°
2026-04-27 14:49 16.06044 -76.41767 31026 ft 463 kts 168°